Printer-friendly version

IAU Minor Planet Center

Minor Planet Center

MPEC 2006-T20 : 2006 TO

The following Minor Planet Electronic Circular may be linked-to from your own Web pages, but must not otherwise be redistributed electronically.


Read MPEC 2006-T19 Read MPEC 2006-T21


M.P.E.C. 2006-T20                                Issued 2006 Oct. 3, 13:21 UT

     The Minor Planet Electronic Circulars contain information on unusual
         minor planets and routine data on comets.  They are published
   on behalf of Commission 20 of the International Astronomical Union by the
          Minor Planet Center, Smithsonian Astrophysical Observatory,
                          Cambridge, MA 02138, U.S.A.

             Prepared using the Tamkin Foundation Computer Network

                              MPC@CFA.HARVARD.EDU
          URL http://cfa-www.harvard.edu/iau/mpc.html  ISSN 1523-6714

                                    2006 TO

Observations:
     K06T00O* C2006 10 02.42829 02 46 41.84 +19 21 12.6          21.5 V ET020G96
     K06T00O  C2006 10 02.43382 02 46 42.92 +19 21 11.7          21.6 V ET020G96
     K06T00O  C2006 10 02.43946 02 46 44.11 +19 21 11.7          21.8 V ET020G96
     K06T00O  C2006 10 02.44506 02 46 45.26 +19 21 10.7          21.4 V ET020G96
     K06T00O  C2006 10 03.37492 02 50 09.95 +19 19 26.8          22.0 V ET020G96
     K06T00O  C2006 10 03.38168 02 50 11.29 +19 19 25.1          22.5 V ET020G96
     K06T00O  C2006 10 03.38840 02 50 12.69 +19 19 24.1          21.4 V ET020G96
     K06T00O  C2006 10 03.39492 02 50 14.04 +19 19 23.4          22.0 V ET020G96
     K06T00O HC2006 10 03.42196 02 50 19.67 +19 19 20.9                 ET020291
     K06T00O  C2006 10 03.42662 02 50 20.63 +19 19 20.1                 ET020291
     K06T00O  C2006 10 03.43073 02 50 21.49 +19 19 19.3                 ET020291

Observer details:
291 LPL/Spacewatch II.  Observer T. H. Bressi.  1.8-m f/2.7 reflector + CCD.
G96 Mt. Lemmon Survey.  Observer E. C. Beshore.  Measurers E. C. Beshore,
    E. J. Christensen, G. J. Garradd, A. R. Gibbs, A. D. Grauer, R. E. Hill,
    R. A. Kowalski, S. M. Larson, R. H. McNaught.  1.5-m reflector + CCD.

Orbital elements:
2006 TO                                                  Earth MOID = 0.1665 AU
Epoch 2006 Sept. 22.0 TT = JDT 2454000.5                MPC
M 345.93301              (2000.0)            P               Q
n   0.32078847     Peri.  202.48165     +0.68376681     -0.72903755
a   2.1134414      Node   204.41482     +0.68041102     +0.65239893
e   0.4533196      Incl.    4.31503     +0.26363570     +0.20707460
P   3.07           H   23.1           G   0.15           U   9
Residuals in seconds of arc
061002 G96  0.3+  0.0     061003 G96  0.5+  0.2+    061003 291  0.0   0.3+
061002 G96  0.4-  0.3-    061003 G96  0.3-  0.7-    061003 291  0.1-  0.2+
061002 G96  0.0   0.3+    061003 G96  0.2-  0.8-    061003 291  0.1+  0.0
061002 G96  0.0   0.0     061003 G96  0.1-  0.7-

Ephemeris:
2006 TO                  a,e,i = 2.11, 0.45, 4                   q = 1.1554
Date    TT    R. A. (2000) Decl.     Delta      r     Elong.  Phase     V
2006 10 02    02 45.15   +19 21.9    0.249    1.211   143.7    29.3    21.8
2006 10 12    03 22.97   +18 33.0    0.217    1.183   145.3    28.7    21.4
2006 10 22    04 01.88   +16 28.4    0.197    1.165   146.4    28.2    21.2
2006 11 01    04 37.73   +13 27.7    0.189    1.156   147.5    27.5    21.0
2006 11 11    05 06.92   +10 14.2    0.190    1.157   149.3    25.9    21.0
2006 11 21    05 27.48   +07 32.4    0.200    1.168   152.3    23.2    21.0
2006 12 01    05 40.01   +05 52.3    0.218    1.189   156.3    19.5    21.1
2006 12 11    05 46.75   +05 20.9    0.245    1.218   160.4    15.8    21.3
2006 12 21    05 50.25   +05 49.4    0.281    1.255   162.4    13.8    21.6

Timothy B. Spahr             (C) Copyright 2006 MPC           M.P.E.C. 2006-T20

Read MPEC 2006-T19 Read MPEC 2006-T21


Our Web policy. Index to the CBAT/MPC/ICQ pages.


Valid HTML 4.01!